• In Deutschland
  • Länderverzeichnis
  • Für 7 Tage
  • Wassertemperatur
  • Satellitenkarten
  • Wetterkarte
  • Widgets
  • user-avatar
    Anmelden

    Stündliche Wetter Tunja

    Heute, 22 November, Mittwoch

    Zeit Temperatur Niederschläge Wind Luftdruck Luftfeuchtigkeit
    00:00 +10°C° 0,1 mm 1 m/S 548 mmHg 96%
    01:00 +10°C° 0,1 mm 1 m/S 548 mmHg 96%
    02:00 +10°C° 0,1 mm 1 m/S 548 mmHg 95%
    03:00 +9°C° 0,1 mm 1 m/S 547 mmHg 95%
    04:00 +9°C° 0,1 mm 1 m/S 547 mmHg 94%
    05:00 +10°C° 0 mm 1 m/S 548 mmHg 93%
    06:00 +11°C° 0 mm 1 m/S 549 mmHg 91%
    07:00 +10°C° 0 mm 0 m/S 549 mmHg 89%
    08:00 +13°C° 0,1 mm 1 m/S 551 mmHg 81%
    09:00 +16°C° 0,1 mm 1 m/S 552 mmHg 73%
    10:00 +19°C° 0,1 mm 1 m/S 553 mmHg 64%
    11:00 +18°C° 0,5 mm 1 m/S 552 mmHg 68%
    12:00 +18°C° 0,5 mm 1 m/S 551 mmHg 72%
    13:00 +18°C° 0,5 mm 1 m/S 551 mmHg 76%
    14:00 +16°C° 0,9 mm 1 m/S 550 mmHg 80%
    15:00 +16°C° 0,9 mm 1 m/S 550 mmHg 83%
    16:00 +15°C° 0,9 mm 1 m/S 549 mmHg 87%
    17:00 +14°C° 0,4 mm 1 m/S 549 mmHg 90%
    18:00 +13°C° 0,4 mm 1 m/S 548 mmHg 93%
    19:00 +11°C° 0,4 mm 1 m/S 548 mmHg 97%
    20:00 +10°C° 0,1 mm 0 m/S 548 mmHg 97%
    21:00 +10°C° 0,1 mm 0 m/S 549 mmHg 96%
    22:00 +10°C° 0,1 mm 0 m/S 549 mmHg 96%
    23:00 +9°C° 0 mm 0 m/S 548 mmHg 96%

    Morgen, 23 November, Donnerstag

    Zeit Temperatur Niederschläge Wind Luftdruck Luftfeuchtigkeit
    00:00 +10°C° 0 mm 1 m/S 548 mmHg 95%
    01:00 +10°C° 0 mm 1 m/S 548 mmHg 95%
    02:00 +10°C° 0 mm 1 m/S 547 mmHg 94%
    03:00 +9°C° 0 mm 1 m/S 547 mmHg 94%
    04:00 +9°C° 0 mm 1 m/S 547 mmHg 94%
    05:00 +10°C° 0,1 mm 1 m/S 548 mmHg 92%
    06:00 +11°C° 0,1 mm 1 m/S 549 mmHg 91%
    07:00 +10°C° 0,1 mm 0 m/S 549 mmHg 89%
    08:00 +13°C° 0,1 mm 1 m/S 551 mmHg 81%
    09:00 +15°C° 0,1 mm 1 m/S 552 mmHg 73%
    10:00 +18°C° 0,1 mm 1 m/S 553 mmHg 65%
    11:00 +18°C° 0,4 mm 1 m/S 552 mmHg 67%
    12:00 +18°C° 0,4 mm 1 m/S 551 mmHg 69%
    13:00 +18°C° 0,4 mm 1 m/S 551 mmHg 70%
    14:00 +18°C° 0,5 mm 1 m/S 550 mmHg 75%
    15:00 +16°C° 0,5 mm 1 m/S 549 mmHg 79%
    16:00 +15°C° 0,5 mm 1 m/S 549 mmHg 84%
    17:00 +14°C° 0,3 mm 1 m/S 548 mmHg 88%
    18:00 +13°C° 0,3 mm 1 m/S 548 mmHg 92%
    19:00 +11°C° 0,3 mm 1 m/S 548 mmHg 96%
    20:00 +11°C° 0,1 mm 1 m/S 548 mmHg 96%
    21:00 +11°C° 0,1 mm 1 m/S 548 mmHg 96%
    22:00 +11°C° 0,1 mm 1 m/S 549 mmHg 96%
    23:00 +10°C° 0 mm 1 m/S 548 mmHg 95%

    übermorgen, 24 November, Freitag

    Zeit Temperatur Niederschläge Wind Luftdruck Luftfeuchtigkeit
    00:00 +10°C° 0 mm 1 m/S 548 mmHg 95%
    01:00 +9°C° 0 mm 1 m/S 547 mmHg 94%
    02:00 +9°C° 0 mm 1 m/S 547 mmHg 94%
    03:00 +9°C° 0 mm 1 m/S 547 mmHg 93%
    04:00 +9°C° 0 mm 1 m/S 547 mmHg 93%
    05:00 +10°C° 0 mm 1 m/S 548 mmHg 92%
    06:00 +10°C° 0 mm 1 m/S 548 mmHg 90%
    07:00 +10°C° 0 mm 0 m/S 549 mmHg 88%
    08:00 +13°C° 0,1 mm 1 m/S 550 mmHg 81%
    09:00 +15°C° 0,1 mm 1 m/S 552 mmHg 73%
    10:00 +18°C° 0,1 mm 1 m/S 553 mmHg 65%
    11:00 +18°C° 0,4 mm 1 m/S 552 mmHg 68%
    12:00 +18°C° 0,4 mm 1 m/S 551 mmHg 70%
    13:00 +18°C° 0,4 mm 1 m/S 551 mmHg 72%
    14:00 +16°C° 1 mm 1 m/S 550 mmHg 77%
    15:00 +15°C° 1 mm 1 m/S 549 mmHg 81%
    16:00 +15°C° 1 mm 1 m/S 549 mmHg 85%
    17:00 +14°C° 0,7 mm 1 m/S 548 mmHg 89%
    18:00 +11°C° 0,7 mm 0 m/S 548 mmHg 93%
    19:00 +10°C° 0,7 mm 0 m/S 548 mmHg 96%
    20:00 +10°C° 0,2 mm 0 m/S 549 mmHg 96%
    21:00 +10°C° 0,2 mm 0 m/S 549 mmHg 96%
    22:00 +10°C° 0,2 mm 0 m/S 549 mmHg 96%
    23:00 +10°C° 0,1 mm 1 m/S 549 mmHg 96%

    25 November, Samstag

    Zeit Temperatur Niederschläge Wind Luftdruck Luftfeuchtigkeit
    00:00 +10°C° 0,1 mm 1 m/S 548 mmHg 96%
    01:00 +10°C° 0,1 mm 1 m/S 548 mmHg 96%
    02:00 +10°C° 0,1 mm 1 m/S 548 mmHg 96%
    03:00 +9°C° 0,1 mm 1 m/S 548 mmHg 95%
    04:00 +9°C° 0,1 mm 1 m/S 548 mmHg 95%
    05:00 +10°C° 0,1 mm 1 m/S 548 mmHg 94%
    06:00 +11°C° 0,1 mm 1 m/S 549 mmHg 92%
    07:00 +11°C° 0,1 mm 1 m/S 550 mmHg 91%
    08:00 +13°C° 0,1 mm 1 m/S 551 mmHg 84%
    09:00 +14°C° 0,1 mm 1 m/S 552 mmHg 78%
    10:00 +16°C° 0,1 mm 1 m/S 553 mmHg 72%
    11:00 +16°C° 0,7 mm 1 m/S 552 mmHg 74%
    12:00 +16°C° 0,7 mm 1 m/S 551 mmHg 75%
    13:00 +16°C° 0,7 mm 1 m/S 551 mmHg 77%
    14:00 +15°C° 1,2 mm 1 m/S 550 mmHg 80%
    15:00 +15°C° 1,2 mm 1 m/S 549 mmHg 84%
    16:00 +13°C° 1,2 mm 0 m/S 549 mmHg 88%
    17:00 +12°C° 1 mm 0 m/S 549 mmHg 91%
    18:00 +12°C° 1 mm 0 m/S 549 mmHg 94%
    19:00 +11°C° 1 mm 0 m/S 549 mmHg 97%
    20:00 +11°C° 0,5 mm 0 m/S 549 mmHg 97%
    21:00 +10°C° 0,5 mm 0 m/S 549 mmHg 97%
    22:00 +10°C° 0,5 mm 0 m/S 550 mmHg 97%
    23:00 +10°C° 0,2 mm 0 m/S 549 mmHg 96%

    26 November, Sonntag

    Zeit Temperatur Niederschläge Wind Luftdruck Luftfeuchtigkeit
    00:00 +10°C° 0,2 mm 0 m/S 549 mmHg 96%
    01:00 +10°C° 0,2 mm 0 m/S 549 mmHg 96%
    02:00 +10°C° 0,2 mm 0 m/S 548 mmHg 96%
    03:00 +10°C° 0,2 mm 0 m/S 548 mmHg 96%
    04:00 +10°C° 0,2 mm 1 m/S 548 mmHg 96%
    05:00 +10°C° 0,3 mm 0 m/S 549 mmHg 95%
    06:00 +10°C° 0,3 mm 0 m/S 549 mmHg 93%
    07:00 +11°C° 0,3 mm 0 m/S 550 mmHg 92%
    08:00 +12°C° 0,2 mm 0 m/S 551 mmHg 85%
    09:00 +15°C° 0,2 mm 1 m/S 552 mmHg 79%
    10:00 +18°C° 0,2 mm 1 m/S 553 mmHg 72%
    11:00 +18°C° 0,7 mm 1 m/S 552 mmHg 74%
    12:00 +18°C° 0,7 mm 1 m/S 551 mmHg 76%
    13:00 +18°C° 0,7 mm 1 m/S 551 mmHg 77%
    14:00 +16°C° 1,5 mm 1 m/S 550 mmHg 81%
    15:00 +15°C° 1,5 mm 1 m/S 549 mmHg 85%
    16:00 +15°C° 1,5 mm 1 m/S 549 mmHg 89%
    17:00 +13°C° 1,6 mm 0 m/S 549 mmHg 92%
    18:00 +12°C° 1,6 mm 0 m/S 548 mmHg 94%
    19:00 +11°C° 1,6 mm 0 m/S 548 mmHg 97%
    20:00 +11°C° 1,4 mm 0 m/S 549 mmHg 97%
    21:00 +12°C° 1,4 mm 1 m/S 549 mmHg 97%
    22:00 +12°C° 1,4 mm 1 m/S 549 mmHg 97%
    23:00 +12°C° 0,6 mm 1 m/S 549 mmHg 97%

    27 November, Montag

    Zeit Temperatur Niederschläge Wind Luftdruck Luftfeuchtigkeit
    00:00 +11°C° 0,6 mm 1 m/S 548 mmHg 97%
    01:00 +11°C° 0,6 mm 1 m/S 548 mmHg 97%
    02:00 +10°C° 0,4 mm 0 m/S 548 mmHg 97%
    03:00 +10°C° 0,4 mm 0 m/S 548 mmHg 96%
    04:00 +10°C° 0,4 mm 0 m/S 548 mmHg 96%
    05:00 +10°C° 0,2 mm 0 m/S 549 mmHg 95%
    06:00 +10°C° 0,2 mm 0 m/S 549 mmHg 95%
    07:00 +11°C° 0,2 mm 0 m/S 550 mmHg 94%
    08:00 +12°C° 0,2 mm 0 m/S 550 mmHg 88%
    09:00 +13°C° 0,2 mm 0 m/S 551 mmHg 83%
    10:00 +15°C° 0,2 mm 0 m/S 552 mmHg 78%
    11:00 +16°C° 0,7 mm 1 m/S 551 mmHg 77%
    12:00 +16°C° 0,7 mm 1 m/S 551 mmHg 77%
    13:00 +16°C° 0,7 mm 1 m/S 550 mmHg 76%
    14:00 +16°C° 1 mm 1 m/S 549 mmHg 80%
    15:00 +15°C° 1 mm 1 m/S 549 mmHg 83%
    16:00 +15°C° 1 mm 1 m/S 548 mmHg 87%
    17:00 +14°C° 0,8 mm 1 m/S 548 mmHg 90%
    18:00 +12°C° 0,8 mm 0 m/S 548 mmHg 94%
    19:00 +11°C° 0,8 mm 0 m/S 548 mmHg 97%
    20:00 +11°C° 0,6 mm 0 m/S 549 mmHg 97%
    21:00 +11°C° 0,6 mm 0 m/S 549 mmHg 97%
    22:00 +11°C° 0,6 mm 0 m/S 549 mmHg 96%
    23:00 +11°C° 0,1 mm 0 m/S 549 mmHg 96%
    Mehr zeigen